GW5686 Weather Reports


time (UTC)temp
F
wind
direction
speed
knots
gust
knots
rain 1hr
in
rain 24hr
in
rain mn
in
humidity
%
barometer
mb
20260504231710 52 158 2.6 2.6 0.00 0.00 0.00 70 1002.7
20260504231207 52 202 3.5 3.5 0.00 0.00 0.00 69 1002.5
20260504230703 52 143 0.9 2.6 0.00 0.00 0.00 69 1002.6
20260504230202 53 242 2.6 3.5 0.00 0.00 0.00 68 1002.5
20260504225700 53 218 1.7 3.5 0.00 0.00 0.00 67 1002.5
20260504225155 54 209 1.7 3.5 0.00 0.00 0.00 67 1002.2
20260504224653 54 195 0.9 0.9 0.00 0.00 0.00 67 1002.3
20260504224149 55 165 0.9 1.7 0.00 0.00 0.00 66 1002.1
20260504223647 55 179 2.6 3.5 0.00 0.00 0.00 65 1002.0
20260504223142 55 202 1.7 3.5 0.00 0.00 0.00 65 1001.7
20260504222639 55 136 1.7 3.5 0.00 0.00 0.00 67 1001.9
20260504222136 55 115 0.9 3.5 0.00 0.00 0.00 66 1001.6
20260504221634 56 76 3.5 3.5 0.00 0.00 0.00 65 1001.8
20260504221131 56 238 0.9 3.5 0.00 0.00 0.00 65 1001.5
20260504220627 56 166 1.7 2.6 0.00 0.00 0.00 65 1001.6
20260504220125 56 151 0.9 1.7 0.00 0.00 0.00 66 1001.8
20260504215620 56 114 2.6 5.2 0.00 0.00 0.00 66 1001.6
20260504215118 55 148 3.5 3.5 0.00 0.00 0.00 68 1001.5
20260504214614 56 180 3.5 5.2 0.00 0.00 0.00 67 1001.6
20260504214110 56 213 3.5 5.2 0.00 0.00 0.00 66 1001.5
20260504213607 59 119 6.1 7.8 0.00 0.00 0.00 61 1001.3
20260504213104 60 255 3.5 6.1 0.00 0.00 0.00 58 1001.5
20260504212600 62 179 0.9 3.5 0.00 0.00 0.00 55 1001.1
20260504212057 62 335 0.9 7.0 0.00 0.00 0.00 54 1001.2
20260504211554 62 44 2.6 2.6 0.00 0.00 0.00 55 1001.3
20260504211051 62 215 5.2 7.8 0.00 0.00 0.00 52 1001.5
20260504210548 62 341 0.9 2.6 0.00 0.00 0.00 54 1001.1
20260504210045 62 61 0.9 2.6 0.00 0.00 0.00 54 1001.2
20260504205543 62 250 3.5 7.8 0.00 0.00 0.00 54 1001.2
20260504205040 62 255 0.9 7.0 0.00 0.00 0.00 54 1001.1
20260504204538 62 319 1.7 7.0 0.00 0.00 0.00 53 1001.1
20260504204037 62 307 3.5 7.0 0.00 0.00 0.00 54 1001.0
20260504203534 62 38 2.6 6.1 0.00 0.00 0.00 54 1001.4
20260504203032 62 74 0.9 2.6 0.00 0.00 0.00 54 1001.3
20260504202527 62 275 3.5 5.2 0.00 0.00 0.00 54 1001.2
20260504202024 61 11 1.7 2.6 0.00 0.00 0.00 54 1001.2
20260504201521 62 309 1.7 7.0 0.00 0.00 0.00 53 1001.3
20260504201019 60 218 1.7 9.6 0.00 0.00 0.00 55 1001.3
20260504200515 61 108 1.7 3.5 0.00 0.00 0.00 56 1001.4
20260504200012 60 284 1.7 5.2 0.00 0.00 0.00 58 1001.5
20260504195508 60 222 6.1 7.8 0.00 0.00 0.00 58 1001.1
20260504195005 60 14 2.6 7.0 0.00 0.00 0.00 57 1001.5
20260504194501 60 310 0.9 3.5 0.00 0.00 0.00 59 1001.5
20260504193957 60 349 3.5 6.1 0.00 0.00 0.00 59 1001.3
20260504193454 59 138 2.6 7.8 0.00 0.00 0.00 60 1001.3
20260504192953 58 259 1.7 5.2 0.00 0.00 0.00 61 1001.5
20260504192449 57 149 2.6 3.5 0.00 0.00 0.00 63 1001.7
20260504191949 55 144 1.7 3.5 0.00 0.00 0.00 65 1001.4
20260504191446 55 184 2.6 5.2 0.00 0.00 0.00 65 1001.6
20260504190941 55 124 0.9 6.1 0.00 0.00 0.00 67 1001.7
20260504190437 54 109 1.7 2.6 0.00 0.00 0.00 71 1001.9
20260504185934 53 221 0.0 6.1 0.00 0.00 0.00 69 1001.9
20260504185431 53 292 1.7 3.5 0.00 0.00 0.00 71 1002.2
20260504184927 53 135 1.7 3.5 0.00 0.00 0.00 72 1002.2
20260504184423 52 155 0.9 2.6 0.00 0.00 0.00 74 1002.2
20260504183919 51 146 1.7 6.1 0.00 0.00 0.00 73 1002.1
20260504183417 51 159 0.0 2.6 0.00 0.00 0.00 73 1002.4
20260504182915 52 257 7.8 9.6 0.00 0.00 0.00 70 1002.1
20260504182411 52 65 1.7 5.2 0.00 0.00 0.00 72 1002.0
20260504181908 52 190 7.0 8.7 0.00 0.00 0.00 68 1002.0
20260504181405 52 125 3.5 7.8 0.00 0.00 0.00 68 1002.0
20260504180904 52 97 2.6 7.0 0.00 0.00 0.00 67 1002.0
20260504180402 52 201 3.5 7.8 0.00 0.00 0.00 66 1001.8
20260504175900 53 228 4.3 8.7 0.00 0.00 0.00 65 1001.9
20260504175356 53 204 4.3 7.8 0.00 0.00 0.00 65 1001.9
20260504174855 53 188 3.5 7.8 0.00 0.00 0.00 60 1001.5
20260504174352 54 207 4.3 11.3 0.00 0.00 0.00 57 1001.8
20260504173849 55 234 3.5 7.8 0.00 0.00 0.00 55 1001.2
20260504173345 55 118 5.2 7.0 0.00 0.00 0.00 53 1001.1
20260504172842 56 181 4.3 7.0 0.00 0.00 0.00 54 1001.2
20260504172339 57 153 4.3 7.0 0.00 0.00 0.00 51 1001.0
20260504171835 57 206 3.5 5.2 0.00 0.00 0.00 51 1001.1
20260504171332 57 119 2.6 8.7 0.00 0.00 0.00 50 1001.2
20260504170830 56 198 0.9 7.8 0.00 0.00 0.00 52 1001.2
20260504170326 56 122 5.2 8.7 0.00 0.00 0.00 45 1001.3
20260504160244 56 188 5.2 13.0 0.00 0.00 0.00 54 1001.5
20260504150710 59 169 4.3 6.1 0.00 0.00 0.00 42 1002.3
20260504150207 59 295 1.7 6.1 0.00 0.00 0.00 44 1002.4
20260504141136 56 280 1.7 7.0 0.00 0.00 0.00 45 1003.2
20260504140632 56 123 1.7 7.8 0.00 0.00 0.00 47 1002.9
20260504140128 55 166 1.7 5.2 0.00 0.00 0.00 49 1003.0
20260504130556 51 262 3.5 6.1 0.00 0.00 0.00 55 1003.8
20260504110444 40 291 1.7 2.6 0.00 0.00 0.00 75 1004.0
20260504100407 36 334 0.9 2.6 0.00 0.00 0.00 81 1003.5
20260504081800 36 328 1.7 2.6 0.00 0.00 0.00 85 1002.2
20260504081256 36 142 0.9 1.7 0.00 0.00 0.00 85 1002.2
20260504080753 36 250 2.6 2.6 0.00 0.00 0.00 85 1002.2
20260504080249 36 69 0.0 0.0 0.00 0.00 0.00 85 1002.4
20260504070217 38 332 0.9 2.6 0.00 0.00 0.00 82 1001.3
20260504060137 39 332 1.7 5.2 0.00 0.00 0.00 83 1000.6
20260504050605 41 318 2.6 7.8 0.00 0.00 0.00 82 1000.1
20260504045559 41 300 3.5 6.1 0.00 0.00 0.00 85 1000.3
20260504045054 42 117 1.7 8.7 0.00 0.00 0.00 84 1000.3
20260504044552 42 291 3.5 7.8 0.00 0.00 0.00 85 1000.4
20260504044049 42 300 5.2 7.8 0.00 0.00 0.00 85 1000.3
20260504043546 42 293 3.5 6.1 0.00 0.00 0.00 85 1000.2
20260504043043 42 335 2.6 7.0 0.00 0.00 0.00 86 1000.1
20260504042540 42 315 2.6 11.3 0.00 0.00 0.00 86 999.9
20260504042037 42 321 3.5 6.1 0.00 0.00 0.00 86 999.9
20260504041533 42 329 5.2 11.3 0.00 0.00 0.00 86 999.6
20260504041029 42 316 8.7 9.6 0.00 0.00 0.00 88 999.6
20260504040527 42 336 3.5 7.8 0.00 0.00 0.00 88 999.6
20260504040023 42 19 5.2 7.0 0.00 0.00 0.00 88 999.6
20260504035520 42 332 1.7 6.1 0.00 1.05 1.05 89 999.5
20260504035016 42 319 4.3 7.8 0.00 1.05 1.05 89 999.5
20260504034514 42 354 5.2 8.7 0.00 1.05 1.05 90 999.4
20260504034011 42 28 1.7 7.0 0.00 1.05 1.05 90 999.4
20260504033509 43 343 2.6 9.6 0.00 1.05 1.05 90 999.5
20260504033006 43 318 3.5 13.0 0.00 1.05 1.05 91 999.2
20260504032503 43 328 1.7 7.0 0.00 1.05 1.05 93 999.6
20260504031959 43 4 3.5 8.7 0.00 1.05 1.05 93 999.5
20260504031456 43 289 4.3 5.2 0.00 1.05 1.05 94 999.3
20260504030953 43 353 7.0 9.6 0.00 1.05 1.05 94 999.3
20260504030450 42 336 3.5 6.1 0.00 1.05 1.05 94 999.2
20260504025946 42 344 1.7 6.1 0.00 1.05 1.05 94 999.2
20260504025443 42 252 2.6 6.1 0.00 1.05 1.05 94 999.0
20260504024940 42 269 2.6 6.1 0.00 1.05 1.05 94 999.0
20260504024437 42 328 3.5 6.1 0.00 1.05 1.05 94 998.9
20260504023934 42 340 2.6 6.1 0.00 1.05 1.05 94 999.1
20260504023430 42 293 3.5 6.1 0.00 1.05 1.05 94 998.9
20260504022926 42 1 5.2 7.0 0.00 1.05 1.05 94 998.9
20260504022423 42 336 3.5 7.0 0.00 1.05 1.05 94 998.9
20260504021920 42 319 2.6 3.5 0.00 1.05 1.05 94 998.7
20260504021417 42 288 7.8 12.2 0.00 1.05 1.05 94 998.8
20260504020914 42 342 2.6 7.8 0.00 1.05 1.05 94 998.8
20260504020410 42 12 1.7 2.6 0.00 1.05 1.05 94 998.6
20260504015907 42 319 1.7 6.1 0.00 1.05 1.05 94 998.9
20260504015403 42 325 4.3 7.0 0.00 1.05 1.05 94 998.8
20260504014859 42 302 3.5 11.3 0.00 1.05 1.05 94 998.6
20260504014355 42 3 7.8 8.7 0.00 1.05 1.05 95 998.6
20260504013853 42 359 6.1 8.7 0.00 1.05 1.05 95 998.5
20260504013351 42 299 4.3 7.8 0.05 1.05 1.05 95 998.4
20260504012847 42 324 2.6 7.8 0.05 1.05 1.05 95 998.4
20260504012345 42 356 4.3 8.7 0.00 1.04 1.04 95 998.5
20260504011842 42 326 4.3 8.7 0.00 1.04 1.04 95 998.2
20260504011338 42 353 7.0 8.7 0.00 1.04 1.04 95 998.3
20260504010835 42 347 5.2 7.0 0.00 1.04 1.04 95 998.0
20260504010330 42 38 4.3 8.7 0.00 1.04 1.04 95 998.1
20260504005827 42 335 6.1 11.3 0.00 1.04 1.04 95 998.0
20260504005324 42 296 6.1 9.6 0.00 1.04 1.04 95 997.9
20260504004821 42 344 7.0 9.6 0.00 1.04 1.04 95 997.8
20260504004319 42 276 5.2 11.3 0.00 1.04 1.04 95 997.6
20260504003815 42 300 5.2 7.8 0.00 1.04 1.04 95 997.6
20260504003312 42 357 1.7 8.7 0.00 1.04 1.04 95 997.5
20260504002809 42 305 4.3 8.7 0.00 1.04 1.04 95 997.5
20260504002306 42 101 5.2 9.6 0.00 1.04 1.04 95 997.3
20260504001803 42 310 7.0 15.6 0.00 1.04 1.04 95 997.3
20260504001300 42 329 5.2 11.3 0.00 1.04 1.04 96 997.2
20260504000757 42 332 5.2 12.2 0.00 1.04 1.04 96 997.1
20260504000254 42 332 4.3 9.6 0.00 1.04 1.04 96 997.3
20260503235752 42 115 5.2 7.8 0.00 1.04 1.04 96 997.0
20260503235249 42 339 4.3 12.2 0.00 1.04 1.04 96 997.0
20260503234747 41 331 4.3 11.3 0.00 1.04 1.04 96 996.8
20260503234245 41 334 4.3 9.6 0.00 1.04 1.04 96 996.8
20260503233741 41 318 1.7 7.8 0.00 1.04 1.04 96 996.9
20260503233237 41 323 4.3 9.6 0.00 1.04 1.04 96 996.5
20260503232734 42 14 3.5 7.8 0.00 1.04 1.04 96 996.7
20260503232232 42 359 8.7 11.3 0.00 1.04 1.04 96 996.7